| time (UTC) | temp C | wind direction | speed KPH | gust KPH | rain 1hr cm | rain 24hr cm | rain mn cm | humidity % | barometer mb |
| 20260901175942 | 19 | 315 | 0.0 | 0.0 | 0.00 | 0.00 | 0.00 | ||
| 20260901175540 | 19 | 315 | 0.0 | 0.0 | 0.00 | 0.00 | 0.00 | ||
| 20260901175139 | 20 | 315 | 0.0 | 1.6 | 0.00 | 0.00 | 0.00 | ||
| 20260901174737 | 20 | 315 | 1.6 | 3.2 | 0.00 | 0.00 | 0.00 | ||
| 20260901174336 | 20 | 315 | 1.6 | 3.2 | 0.00 | 0.00 | 0.00 | ||
| 20260901173532 | 20 | 315 | 1.6 | 3.2 | 0.00 | 0.00 | 0.00 | ||
| 20260901173414 | 20 | 315 | 0.0 | 3.2 | 0.00 | 0.00 | 0.00 | ||
| 20260901173131 | 20 | 315 | 0.0 | 3.2 | 0.00 | 0.00 | 0.00 | ||
| 20260901172729 | 21 | 315 | 1.6 | 3.2 | 0.00 | 0.00 | 0.00 | ||
| 20260901171918 | 21 | 315 | 0.0 | 3.2 | 0.00 | 0.00 | 0.00 | ||
| 20260901171517 | 21 | 293 | 3.2 | 6.4 | 0.00 | 0.00 | 0.00 | ||
| 20260901171116 | 21 | 292 | 1.6 | 3.2 | 0.00 | 0.00 | 0.00 | ||
| 20260901170714 | 21 | 292 | 1.6 | 4.8 | 0.00 | 0.00 | 0.00 | ||
| 20260901170312 | 21 | 295 | 3.2 | 4.8 | 0.00 | 0.00 | 0.00 | ||
| 20260901165911 | 21 | 305 | 4.8 | 8.0 | 0.00 | 0.00 | 0.00 | ||
| 20260901165510 | 22 | 292 | 4.8 | 9.7 | 0.00 | 0.00 | 0.00 | ||
| 20260901165109 | 22 | 292 | 4.8 | 6.4 | 0.00 | 0.00 | 0.00 | ||
| 20260901164706 | 23 | 292 | 6.4 | 8.0 | 0.00 | 0.00 | 0.00 | ||
| 20260901164258 | 23 | 307 | 6.4 | 9.7 | 0.00 | 0.00 | 0.00 | ||
| 20260901163856 | 25 | 315 | 3.2 | 6.4 | 0.00 | 0.00 | 0.00 | ||
| 20260901163455 | 24 | 298 | 4.8 | 9.7 | 0.00 | 0.00 | 0.00 | ||
| 20260901163053 | 25 | 295 | 8.0 | 11.3 | 0.00 | 0.00 | 0.00 | ||
| 20260901162651 | 25 | 301 | 6.4 | 11.3 | 0.00 | 0.00 | 0.00 | ||
| 20260901162250 | 25 | 315 | 3.2 | 6.4 | 0.00 | 0.00 | 0.00 | ||
| 20260901161848 | 23 | 286 | 6.4 | 8.0 | 0.00 | 0.00 | 0.00 | ||
| 20260901161447 | 23 | 273 | 8.0 | 12.9 | 0.00 | 0.00 | 0.00 | ||
| 20260901161045 | 23 | 292 | 8.0 | 12.9 | 0.00 | 0.00 | 0.00 | ||
| 20260901160643 | 23 | 292 | 6.4 | 11.3 | 0.00 | 0.00 | 0.00 | ||
| 20260901160235 | 22 | 301 | 4.8 | 9.7 | 0.00 | 0.00 | 0.00 | ||
| 20260901155833 | 22 | 287 | 6.4 | 9.7 | 0.00 | 0.00 | 0.00 | ||
| 20260901155431 | 22 | 292 | 4.8 | 6.4 | 0.00 | 0.00 | 0.00 | ||
| 20260901155030 | 22 | 277 | 3.2 | 4.8 | 0.00 | 0.00 | 0.00 | ||
| 20260901154628 | 22 | 289 | 4.8 | 9.7 | 0.00 | 0.00 | 0.00 | ||
| 20260901154228 | 22 | 290 | 4.8 | 8.0 | 0.00 | 0.00 | 0.00 | ||
| 20260901153824 | 22 | 304 | 3.2 | 8.0 | 0.00 | 0.00 | 0.00 | ||
| 20260901153423 | 22 | 298 | 8.0 | 12.9 | 0.00 | 0.00 | 0.00 | ||
| 20260901153022 | 22 | 297 | 6.4 | 9.7 | 0.00 | 0.00 | 0.00 | ||
| 20260901152621 | 22 | 278 | 6.4 | 9.7 | 0.00 | 0.00 | 0.00 | ||
| 20260901152211 | 22 | 302 | 4.8 | 8.0 | 0.00 | 0.00 | 0.00 | ||
| 20260901151810 | 22 | 296 | 8.0 | 14.5 | 0.00 | 0.00 | 0.00 | ||
| 20260901151409 | 22 | 297 | 8.0 | 12.9 | 0.00 | 0.00 | 0.00 | ||
| 20260901151008 | 22 | 301 | 8.0 | 14.5 | 0.00 | 0.00 | 0.00 | ||
| 20260901150606 | 22 | 291 | 8.0 | 12.9 | 0.00 | 0.00 | 0.00 | ||
| 20260901150204 | 22 | 314 | 4.8 | 8.0 | 0.00 | 0.00 | 0.00 | ||
| 20260901145802 | 22 | 308 | 6.4 | 9.7 | 0.00 | 0.00 | 0.00 | ||
| 20260901145401 | 22 | 295 | 8.0 | 14.5 | 0.00 | 0.00 | 0.00 | ||
| 20260901145000 | 22 | 298 | 4.8 | 11.3 | 0.00 | 0.00 | 0.00 | ||
| 20260901144557 | 22 | 296 | 4.8 | 6.4 | 0.00 | 0.00 | 0.00 | ||
| 20260901144149 | 22 | 313 | 8.0 | 12.9 | 0.00 | 0.00 | 0.00 | ||
| 20260901143747 | 22 | 289 | 4.8 | 8.0 | 0.00 | 0.00 | 0.00 | ||
| 20260901143346 | 22 | 279 | 3.2 | 6.4 | 0.00 | 0.00 | 0.00 | ||
| 20260901142944 | 22 | 289 | 8.0 | 14.5 | 0.00 | 0.00 | 0.00 | ||
| 20260901142542 | 22 | 309 | 6.4 | 9.7 | 0.00 | 0.00 | 0.00 | ||
| 20260901142141 | 22 | 302 | 8.0 | 11.3 | 0.00 | 0.00 | 0.00 | ||
| 20260901141739 | 22 | 298 | 6.4 | 9.7 | 0.00 | 0.00 | 0.00 | ||
| 20260901141337 | 22 | 292 | 6.4 | 12.9 | 0.00 | 0.00 | 0.00 | ||
| 20260901140936 | 22 | 303 | 4.8 | 8.0 | 0.00 | 0.00 | 0.00 | ||
| 20260901140534 | 22 | 294 | 8.0 | 14.5 | 0.00 | 0.00 | 0.00 | ||
| 20260901140126 | 22 | 298 | 6.4 | 11.3 | 0.00 | 0.00 | 0.00 | ||
| 20260901135725 | 23 | 270 | 3.2 | 8.0 | 0.00 | 0.00 | 0.00 | ||
| 20260901135322 | 22 | 298 | 8.0 | 14.5 | 0.00 | 0.00 | 0.00 | ||
| 20260901134922 | 22 | 306 | 6.4 | 11.3 | 0.00 | 0.00 | 0.00 | ||
| 20260901134520 | 23 | 255 | 12.9 | 17.7 | 0.00 | 0.00 | 0.00 | ||
| 20260901134119 | 23 | 277 | 6.4 | 9.7 | 0.00 | 0.00 | 0.00 | ||
| 20260901133716 | 23 | 266 | 8.0 | 16.1 | 0.00 | 0.00 | 0.00 | ||
| 20260901133315 | 23 | 279 | 9.7 | 12.9 | 0.00 | 0.00 | 0.00 | ||
| 20260901132914 | 23 | 256 | 8.0 | 16.1 | 0.00 | 0.00 | 0.00 | ||
| 20260901132512 | 23 | 257 | 11.3 | 16.1 | 0.00 | 0.00 | 0.00 | ||
| 20260901132103 | 23 | 277 | 11.3 | 14.5 | 0.00 | 0.00 | 0.00 | ||
| 20260901131700 | 23 | 256 | 12.9 | 20.9 | 0.00 | 0.00 | 0.00 | ||
| 20260901131259 | 23 | 268 | 16.1 | 20.9 | 0.00 | 0.00 | 0.00 | ||
| 20260901130858 | 24 | 250 | 11.3 | 16.1 | 0.00 | 0.00 | 0.00 | ||
| 20260901130454 | 23 | 261 | 12.9 | 19.3 | 0.00 | 0.00 | 0.00 | ||
| 20260901130053 | 24 | 277 | 6.4 | 14.5 | 0.00 | 0.00 | 0.00 | ||
| 20260901125651 | 23 | 231 | 9.7 | 14.5 | 0.00 | 0.00 | 0.00 | ||
| 20260901125250 | 23 | 261 | 14.5 | 19.3 | 0.00 | 0.00 | 0.00 | ||
| 20260901124849 | 24 | 243 | 11.3 | 17.7 | 0.00 | 0.00 | 0.00 | ||
| 20260901124446 | 24 | 261 | 17.7 | 24.1 | 0.00 | 0.00 | 0.00 | ||
| 20260901124038 | 24 | 256 | 12.9 | 22.5 | 0.00 | 0.00 | 0.00 | ||
| 20260901123636 | 24 | 267 | 12.9 | 19.3 | 0.00 | 0.00 | 0.00 | ||
| 20260901123235 | 24 | 240 | 14.5 | 22.5 | 0.00 | 0.00 | 0.00 | ||
| 20260901122431 | 23 | 250 | 14.5 | 24.1 | 0.00 | 0.00 | 0.00 | ||
| 20260901121628 | 25 | 238 | 12.9 | 24.1 | 0.00 | 0.00 | 0.00 | ||
| 20260901121226 | 25 | 241 | 12.9 | 22.5 | 0.00 | 0.00 | 0.00 | ||
| 20260901120825 | 23 | 244 | 11.3 | 17.7 | 0.00 | 0.00 | 0.00 | ||
| 20260901120423 | 23 | 231 | 12.9 | 24.1 | 0.00 | 0.00 | 0.00 | ||
| 20260901120015 | 23 | 218 | 14.5 | 22.5 | 0.00 | 0.00 | 0.00 | ||
| 20260901115612 | 23 | 240 | 17.7 | 25.7 | 0.00 | 0.00 | 0.00 | ||
| 20260901115211 | 23 | 233 | 9.7 | 16.1 | 0.00 | 0.00 | 0.00 | ||
| 20260901114810 | 23 | 250 | 14.5 | 24.1 | 0.00 | 0.00 | 0.00 | ||
| 20260901114409 | 24 | 233 | 16.1 | 19.3 | 0.00 | 0.00 | 0.00 | ||
| 20260901114008 | 23 | 257 | 14.5 | 24.1 | 0.00 | 0.00 | 0.00 | ||
| 20260901113605 | 23 | 263 | 16.1 | 25.7 | 0.00 | 0.00 | 0.00 | ||
| 20260901113204 | 24 | 254 | 14.5 | 20.9 | 0.00 | 0.00 | 0.00 | ||
| 20260901112803 | 24 | 220 | 14.5 | 19.3 | 0.00 | 0.00 | 0.00 | ||
| 20260901112401 | 24 | 235 | 9.7 | 16.1 | 0.00 | 0.00 | 0.00 | ||
| 20260901111952 | 24 | 242 | 8.0 | 19.3 | 0.00 | 0.00 | 0.00 | ||
| 20260901111550 | 23 | 238 | 11.3 | 17.7 | 0.00 | 0.00 | 0.00 | ||
| 20260901111149 | 23 | 237 | 12.9 | 17.7 | 0.00 | 0.00 | 0.00 | ||
| 20260901110748 | 23 | 218 | 16.1 | 32.2 | 0.00 | 0.00 | 0.00 | ||
| 20260901110345 | 23 | 223 | 12.9 | 20.9 | 0.00 | 0.00 | 0.00 | ||
| 20260901105944 | 22 | 260 | 9.7 | 19.3 | 0.00 | 0.00 | 0.00 | ||
| 20260901105542 | 22 | 249 | 11.3 | 16.1 | 0.00 | 0.00 | 0.00 | ||
| 20260901105141 | 22 | 251 | 8.0 | 16.1 | 0.00 | 0.00 | 0.00 | ||
| 20260901104739 | 22 | 247 | 16.1 | 24.1 | 0.00 | 0.00 | 0.00 | ||
| 20260901104337 | 23 | 244 | 14.5 | 22.5 | 0.00 | 0.00 | 0.00 | ||
| 20260901103929 | 23 | 258 | 12.9 | 19.3 | 0.00 | 0.00 | 0.00 | ||
| 20260901103527 | 23 | 223 | 9.7 | 22.5 | 0.00 | 0.00 | 0.00 | ||
| 20260901103126 | 22 | 258 | 12.9 | 19.3 | 0.00 | 0.00 | 0.00 | ||
| 20260901102724 | 22 | 275 | 14.5 | 20.9 | 0.00 | 0.00 | 0.00 | ||
| 20260901102322 | 22 | 263 | 11.3 | 16.1 | 0.00 | 0.00 | 0.00 | ||
| 20260901101921 | 22 | 263 | 14.5 | 20.9 | 0.00 | 0.00 | 0.00 | ||
| 20260901101520 | 22 | 242 | 12.9 | 20.9 | 0.00 | 0.00 | 0.00 | ||
| 20260901101117 | 23 | 271 | 14.5 | 24.1 | 0.00 | 0.00 | 0.00 | ||
| 20260901100716 | 22 | 214 | 12.9 | 24.1 | 0.00 | 0.00 | 0.00 | ||
| 20260901100315 | 22 | 232 | 11.3 | 22.5 | 0.00 | 0.00 | 0.00 | ||
| 20260901095907 | 23 | 263 | 11.3 | 20.9 | 0.00 | 0.00 | 0.00 | ||
| 20260901095504 | 23 | 243 | 11.3 | 17.7 | 0.00 | 0.00 | 0.00 | ||
| 20260901095103 | 22 | 228 | 12.9 | 20.9 | 0.00 | 0.00 | 0.00 | ||
| 20260901094702 | 22 | 278 | 12.9 | 16.1 | 0.00 | 0.00 | 0.00 | ||
| 20260901094300 | 22 | 247 | 11.3 | 17.7 | 0.00 | 0.00 | 0.00 | ||
| 20260901093858 | 22 | 248 | 12.9 | 19.3 | 0.00 | 0.00 | 0.00 | ||
| 20260901093456 | 22 | 232 | 11.3 | 19.3 | 0.00 | 0.00 | 0.00 | ||
| 20260901093055 | 22 | 254 | 9.7 | 19.3 | 0.00 | 0.00 | 0.00 | ||
| 20260901092654 | 22 | 258 | 14.5 | 20.9 | 0.00 | 0.00 | 0.00 | ||
| 20260901091843 | 22 | 241 | 9.7 | 14.5 | 0.00 | 0.00 | 0.00 | ||
| 20260901091441 | 21 | 244 | 14.5 | 17.7 | 0.00 | 0.00 | 0.00 | ||
| 20260901091040 | 22 | 219 | 6.4 | 11.3 | 0.00 | 0.00 | 0.00 | ||
| 20260901090639 | 22 | 240 | 9.7 | 14.5 | 0.00 | 0.00 | 0.00 | ||
| 20260901090236 | 21 | 266 | 8.0 | 11.3 | 0.00 | 0.00 | 0.00 | ||
| 20260901085835 | 22 | 267 | 11.3 | 14.5 | 0.00 | 0.00 | 0.00 | ||
| 20260901085433 | 22 | 241 | 11.3 | 17.7 | 0.00 | 0.00 | 0.00 | ||
| 20260901085033 | 21 | 260 | 14.5 | 17.7 | 0.00 | 0.00 | 0.00 | ||
| 20260901084630 | 22 | 222 | 12.9 | 24.1 | 0.00 | 0.00 | 0.00 | ||
| 20260901084309 | 22 | 255 | 12.9 | 19.3 | 0.00 | 0.00 | 0.00 | ||
| 20260901084229 | 22 | 255 | 12.9 | 19.3 | 0.00 | 0.00 | 0.00 | ||
| 20260901083821 | 21 | 248 | 11.3 | 17.7 | 0.00 | 0.00 | 0.00 | ||
| 20260901083419 | 21 | 272 | 11.3 | 16.1 | 0.00 | 0.00 | 0.00 | ||
| 20260901083017 | 21 | 281 | 11.3 | 14.5 | 0.00 | 0.00 | 0.00 | ||
| 20260901082616 | 21 | 295 | 12.9 | 19.3 | 0.00 | 0.00 | 0.00 | ||
| 20260901082214 | 22 | 254 | 8.0 | 16.1 | 0.00 | 0.00 | 0.00 | ||
| 20260901081813 | 22 | 229 | 9.7 | 19.3 | 0.00 | 0.00 | 0.00 | ||
| 20260901081411 | 22 | 211 | 8.0 | 16.1 | 0.00 | 0.00 | 0.00 | ||
| 20260901081009 | 22 | 246 | 8.0 | 14.5 | 0.00 | 0.00 | 0.00 | ||
| 20260901080608 | 21 | 258 | 9.7 | 14.5 | 0.00 | 0.00 | 0.00 | ||
| 20260901080206 | 21 | 249 | 9.7 | 16.1 | 0.00 | 0.00 | 0.00 | ||
| 20260901075758 | 21 | 234 | 12.9 | 17.7 | 0.00 | 0.00 | 0.00 | ||
| 20260901075545 | 21 | 250 | 11.3 | 14.5 | 0.00 | 0.00 | 0.00 | ||
| 20260901075355 | 21 | 249 | 12.9 | 17.7 | 0.00 | 0.00 | 0.00 | ||
| 20260901074954 | 21 | 250 | 11.3 | 14.5 | 0.00 | 0.00 | 0.00 | ||
| 20260901074553 | 21 | 266 | 12.9 | 17.7 | 0.00 | 0.00 | 0.00 | ||
| 20260901074151 | 21 | 255 | 16.1 | 22.5 | 0.00 | 0.00 | 0.00 | ||
| 20260901073749 | 20 | 270 | 16.1 | 24.1 | 0.00 | 0.00 | 0.00 | ||
| 20260901073347 | 20 | 274 | 14.5 | 19.3 | 0.00 | 0.00 | 0.00 | ||
| 20260901072946 | 20 | 268 | 14.5 | 20.9 | 0.00 | 0.00 | 0.00 | ||
| 20260901072545 | 21 | 262 | 9.7 | 22.5 | 0.00 | 0.00 | 0.00 | ||
| 20260901072142 | 21 | 244 | 9.7 | 20.9 | 0.00 | 0.00 | 0.00 | ||
| 20260901071735 | 20 | 229 | 17.7 | 27.4 | 0.00 | 0.00 | 0.00 | ||
| 20260901071333 | 21 | 237 | 14.5 | 19.3 | 0.00 | 0.00 | 0.00 | ||
| 20260901070931 | 20 | 252 | 14.5 | 20.9 | 0.00 | 0.00 | 0.00 | ||
| 20260901070531 | 21 | 241 | 14.5 | 19.3 | 0.00 | 0.00 | 0.00 | ||
| 20260901070128 | 20 | 229 | 12.9 | 20.9 | 0.00 | 0.00 | 0.00 | ||
| 20260901065726 | 21 | 231 | 14.5 | 19.3 | 0.00 | 0.00 | 0.00 | ||
| 20260901065324 | 21 | 239 | 9.7 | 14.5 | 0.00 | 0.00 | 0.00 | ||
| 20260901064922 | 21 | 248 | 9.7 | 12.9 | 0.00 | 0.00 | 0.00 | ||
| 20260901064520 | 21 | 264 | 11.3 | 17.7 | 0.00 | 0.00 | 0.00 | ||
| 20260901064119 | 21 | 246 | 12.9 | 19.3 | 0.00 | 0.00 | 0.00 | ||
| 20260901063711 | 21 | 240 | 16.1 | 22.5 | 0.00 | 0.00 | 0.00 | ||
| 20260901063309 | 20 | 244 | 14.5 | 19.3 | 0.00 | 0.00 | 0.00 | ||
| 20260901062907 | 20 | 254 | 12.9 | 24.1 | 0.00 | 0.00 | 0.00 | ||
| 20260901062506 | 20 | 236 | 12.9 | 19.3 | 0.00 | 0.00 | 0.00 | ||
| 20260901062104 | 20 | 245 | 14.5 | 22.5 | 0.00 | 0.00 | 0.00 | ||
| 20260901061703 | 20 | 238 | 14.5 | 22.5 | 0.00 | 0.00 | 0.00 | ||
| 20260901061300 | 20 | 249 | 12.9 | 20.9 | 0.00 | 0.00 | 0.00 | ||
| 20260901060859 | 20 | 257 | 17.7 | 27.4 | 0.00 | 0.00 | 0.00 | ||
| 20260901060458 | 21 | 246 | 11.3 | 17.7 | 0.00 | 0.00 | 0.00 | ||
| 20260901060056 | 21 | 253 | 8.0 | 14.5 | 0.00 | 0.00 | 0.00 | ||
| 20260901055648 | 20 | 250 | 12.9 | 17.7 | 0.00 | 0.00 | 0.00 | ||
| 20260901055245 | 20 | 249 | 14.5 | 20.9 | 0.00 | 0.00 | 0.00 | ||
| 20260901054844 | 20 | 248 | 14.5 | 22.5 | 0.00 | 0.00 | 0.00 | ||
| 20260901054443 | 20 | 251 | 9.7 | 16.1 | 0.00 | 0.00 | 0.00 | ||
| 20260901054041 | 20 | 247 | 9.7 | 16.1 | 0.00 | 0.00 | 0.00 | ||
| 20260901053639 | 20 | 232 | 12.9 | 20.9 | 0.00 | 0.00 | 0.00 | ||
| 20260901053237 | 20 | 254 | 12.9 | 17.7 | 0.00 | 0.00 | 0.00 | ||
| 20260901052836 | 21 | 243 | 8.0 | 14.5 | 0.00 | 0.00 | 0.00 | ||
| 20260901052435 | 21 | 237 | 8.0 | 16.1 | 0.00 | 0.00 | 0.00 | ||
| 20260901052032 | 20 | 234 | 8.0 | 12.9 | 0.00 | 0.00 | 0.00 | ||
| 20260901051624 | 20 | 234 | 6.4 | 11.3 | 0.00 | 0.00 | 0.00 | ||
| 20260901051223 | 21 | 239 | 6.4 | 9.7 | 0.00 | 0.00 | 0.00 | ||
| 20260901050822 | 20 | 250 | 6.4 | 9.7 | 0.00 | 0.00 | 0.00 | ||
| 20260901050419 | 20 | 253 | 9.7 | 16.1 | 0.00 | 0.00 | 0.00 | ||
| 20260901050018 | 21 | 240 | 6.4 | 12.9 | 0.00 | 0.00 | 0.00 | ||
| 20260901045617 | 21 | 239 | 8.0 | 12.9 | 0.00 | 0.00 | 0.00 | ||
| 20260901045215 | 21 | 223 | 4.8 | 8.0 | 0.00 | 0.00 | 0.00 | ||
| 20260901044814 | 20 | 222 | 9.7 | 14.5 | 0.00 | 0.00 | 0.00 | ||
| 20260901044412 | 20 | 218 | 6.4 | 11.3 | 0.00 | 0.00 | 0.00 | ||
| 20260901044010 | 20 | 220 | 8.0 | 14.5 | 0.00 | 0.00 | 0.00 | ||
| 20260901043602 | 20 | 222 | 8.0 | 14.5 | 0.00 | 0.00 | 0.00 | ||
| 20260901043200 | 20 | 216 | 9.7 | 17.7 | 0.00 | 0.00 | 0.00 | ||
| 20260901042758 | 20 | 215 | 9.7 | 16.1 | 0.00 | 0.00 | 0.00 | ||
| 20260901042357 | 20 | 222 | 8.0 | 12.9 | 0.00 | 0.00 | 0.00 | ||
| 20260901041955 | 20 | 222 | 8.0 | 14.5 | 0.00 | 0.00 | 0.00 | ||
| 20260901041554 | 20 | 220 | 6.4 | 11.3 | 0.00 | 0.00 | 0.00 | ||
| 20260901041151 | 20 | 218 | 6.4 | 12.9 | 0.00 | 0.00 | 0.00 | ||
| 20260901040750 | 20 | 219 | 9.7 | 17.7 | 0.00 | 0.00 | 0.00 | ||
| 20260901040349 | 20 | 220 | 8.0 | 12.9 | 0.00 | 0.00 | 0.00 | ||
| 20260901035947 | 20 | 217 | 6.4 | 12.9 | 0.00 | 0.00 | 0.00 | ||
| 20260901035538 | 20 | 225 | 8.0 | 11.3 | 0.00 | 0.00 | 0.00 | ||
| 20260901035136 | 20 | 221 | 8.0 | 14.5 | 0.00 | 0.00 | 0.00 | ||
| 20260901034735 | 20 | 216 | 8.0 | 14.5 | 0.00 | 0.00 | 0.00 | ||
| 20260901034334 | 20 | 222 | 9.7 | 16.1 | 0.00 | 0.00 | 0.00 | ||
| 20260901033531 | 20 | 216 | 9.7 | 17.7 | 0.00 | 0.00 | 0.00 | ||
| 20260901033129 | 20 | 206 | 11.3 | 16.1 | 0.00 | 0.00 | 0.00 | ||
| 20260901032728 | 20 | 208 | 11.3 | 17.7 | 0.00 | 0.00 | 0.00 | ||
| 20260901032327 | 20 | 209 | 9.7 | 16.1 | 0.00 | 0.00 | 0.00 | ||
| 20260901031924 | 20 | 213 | 8.0 | 12.9 | 0.00 | 0.00 | 0.00 | ||
| 20260901031516 | 20 | 203 | 8.0 | 14.5 | 0.00 | 0.00 | 0.00 | ||
| 20260901031114 | 20 | 202 | 8.0 | 12.9 | 0.00 | 0.00 | 0.00 | ||
| 20260901030713 | 20 | 202 | 6.4 | 11.3 | 0.00 | 0.00 | 0.00 | ||
| 20260901030311 | 18 | 202 | 4.8 | 6.4 | 0.00 | 0.00 | 0.00 | ||
| 20260901025909 | 18 | 202 | 4.8 | 8.0 | 0.00 | 0.00 | 0.00 | ||
| 20260901025508 | 18 | 202 | 4.8 | 6.4 | 0.00 | 0.00 | 0.00 | ||
| 20260901025106 | 19 | 202 | 3.2 | 4.8 | 0.00 | 0.00 | 0.00 | ||
| 20260901024704 | 20 | 202 | 3.2 | 6.4 | 0.00 | 0.00 | 0.00 | ||
| 20260901024303 | 18 | 202 | 4.8 | 8.0 | 0.00 | 0.00 | 0.00 | ||
| 20260901023901 | 17 | 202 | 3.2 | 3.2 | 0.00 | 0.00 | 0.00 | ||
| 20260901023453 | 18 | 202 | 1.6 | 3.2 | 0.00 | 0.00 | 0.00 | ||
| 20260901023051 | 18 | 202 | 3.2 | 4.8 | 0.00 | 0.00 | 0.00 | ||
| 20260901022649 | 19 | 202 | 3.2 | 3.2 | 0.00 | 0.00 | 0.00 | ||
| 20260901022248 | 19 | 202 | 1.6 | 3.2 | 0.00 | 0.00 | 0.00 | ||
| 20260901021846 | 20 | 202 | 3.2 | 4.8 | 0.00 | 0.00 | 0.00 | ||
| 20260901021445 | 20 | 204 | 3.2 | 4.8 | 0.00 | 0.00 | 0.00 | ||
| 20260901021042 | 21 | 202 | 3.2 | 6.4 | 0.00 | 0.00 | 0.00 | ||
| 20260901020641 | 20 | 202 | 3.2 | 4.8 | 0.00 | 0.00 | 0.00 | ||
| 20260901020240 | 18 | 202 | 1.6 | 3.2 | 0.00 | 0.00 | 0.00 | ||
| 20260901015839 | 19 | 202 | 3.2 | 4.8 | 0.00 | 0.00 | 0.00 | ||
| 20260901015429 | 21 | 202 | 4.8 | 6.4 | 0.00 | 0.00 | 0.00 | ||
| 20260901015028 | 21 | 202 | 4.8 | 8.0 | 0.00 | 0.00 | 0.00 | ||
| 20260901014627 | 21 | 202 | 6.4 | 8.0 | 0.00 | 0.00 | 0.00 | ||
| 20260901014226 | 21 | 206 | 6.4 | 9.7 | 0.00 | 0.00 | 0.00 | ||
| 20260901013823 | 21 | 225 | 6.4 | 11.3 | 0.00 | 0.00 | 0.00 | ||
| 20260901013422 | 21 | 234 | 6.4 | 9.7 | 0.00 | 0.00 | 0.00 | ||
| 20260901013020 | 21 | 225 | 6.4 | 9.7 | 0.00 | 0.00 | 0.00 | ||
| 20260901012619 | 21 | 228 | 6.4 | 8.0 | 0.00 | 0.00 | 0.00 | ||
| 20260901012218 | 21 | 227 | 6.4 | 11.3 | 0.00 | 0.00 | 0.00 | ||
| 20260901011815 | 21 | 225 | 4.8 | 6.4 | 0.00 | 0.00 | 0.00 | ||
| 20260901011406 | 21 | 223 | 4.8 | 9.7 | 0.00 | 0.00 | 0.00 | ||
| 20260901011005 | 21 | 218 | 6.4 | 11.3 | 0.00 | 0.00 | 0.00 | ||
| 20260901010604 | 21 | 182 | 4.8 | 8.0 | 0.00 | 0.00 | 0.00 | ||
| 20260901010201 | 21 | 202 | 4.8 | 6.4 | 0.00 | 0.00 | 0.00 | ||
| 20260901005800 | 21 | 195 | 6.4 | 11.3 | 0.00 | 0.00 | 0.00 | ||
| 20260901005359 | 21 | 202 | 8.0 | 9.7 | 0.00 | 0.00 | 0.00 | ||
| 20260901004957 | 21 | 202 | 6.4 | 9.7 | 0.00 | 0.00 | 0.00 | ||
| 20260901004555 | 21 | 202 | 6.4 | 9.7 | 0.00 | 0.00 | 0.00 | ||
| 20260901004154 | 21 | 187 | 6.4 | 9.7 | 0.00 | 0.00 | 0.00 | ||
| 20260901003758 | 20 | 186 | 4.8 | 8.0 | 0.00 | 0.00 | 0.00 | ||
| 20260901003752 | 20 | 186 | 4.8 | 8.0 | 0.00 | 0.00 | 0.00 | ||
| 20260901003344 | 20 | 180 | 4.8 | 6.4 | 0.00 | 0.00 | 0.00 | ||
| 20260901002941 | 20 | 180 | 4.8 | 8.0 | 0.00 | 0.00 | 0.00 | ||
| 20260901002540 | 21 | 180 | 4.8 | 8.0 | 0.00 | 0.00 | 0.00 | ||
| 20260901002139 | 21 | 180 | 4.8 | 8.0 | 0.00 | 0.00 | 0.00 | ||
| 20260901001737 | 20 | 180 | 4.8 | 6.4 | 0.00 | 0.00 | 0.00 | ||
| 20260901001336 | 20 | 180 | 3.2 | 6.4 | 0.00 | 0.00 | 0.00 | ||
| 20260901000933 | 20 | 193 | 3.2 | 6.4 | 0.00 | 0.00 | 0.00 | ||
| 20260901000532 | 20 | 180 | 3.2 | 6.4 | 0.00 | 0.00 | 0.00 | ||
| 20260901000131 | 20 | 169 | 6.4 | 8.0 | 0.00 | 0.00 | 0.00 | ||
| 20260831235729 | 20 | 157 | 4.8 | 8.0 | 0.00 | 0.00 | 0.00 | ||
| 20260831235320 | 21 | 180 | 6.4 | 9.7 | 0.00 | 0.00 | 0.00 | ||
| 20260831234918 | 20 | 180 | 4.8 | 8.0 | 0.00 | 0.00 | 0.00 | ||
| 20260831234517 | 20 | 202 | 4.8 | 6.4 | 0.00 | 0.00 | 0.00 | ||
| 20260831234115 | 20 | 202 | 4.8 | 6.4 | 0.00 | 0.00 | 0.00 | ||
| 20260831233712 | 21 | 202 | 3.2 | 8.0 | 0.00 | 0.00 | 0.00 | ||
| 20260831233311 | 21 | 202 | 4.8 | 9.7 | 0.00 | 0.00 | 0.00 | ||
| 20260831232908 | 21 | 202 | 4.8 | 8.0 | 0.00 | 0.00 | 0.00 | ||
| 20260831232507 | 21 | 202 | 4.8 | 6.4 | 0.00 | 0.00 | 0.00 | ||
| 20260831232105 | 21 | 202 | 4.8 | 8.0 | 0.00 | 0.00 | 0.00 | ||
| 20260831231703 | 20 | 201 | 4.8 | 6.4 | 0.00 | 0.00 | 0.00 | ||
| 20260831231255 | 20 | 180 | 3.2 | 4.8 | 0.00 | 0.00 | 0.00 | ||
| 20260831230854 | 20 | 202 | 3.2 | 4.8 | 0.00 | 0.00 | 0.00 | ||
| 20260831230453 | 20 | 202 | 4.8 | 6.4 | 0.00 | 0.00 | 0.00 | ||
| 20260831230050 | 20 | 225 | 4.8 | 6.4 | 0.00 | 0.00 | 0.00 | ||
| 20260831225649 | 20 | 225 | 3.2 | 6.4 | 0.00 | 0.00 | 0.00 | ||
| 20260831225247 | 21 | 225 | 1.6 | 4.8 | 0.00 | 0.00 | 0.00 | ||
| 20260831224845 | 21 | 225 | 3.2 | 6.4 | 0.00 | 0.00 | 0.00 | ||
| 20260831224443 | 20 | 202 | 3.2 | 4.8 | 0.00 | 0.00 | 0.00 | ||
| 20260831224042 | 21 | 202 | 1.6 | 3.2 | 0.00 | 0.00 | 0.00 | ||
| 20260831223640 | 19 | 202 | 0.0 | 0.0 | 0.00 | 0.00 | 0.00 | ||
| 20260831223232 | 19 | 202 | 0.0 | 0.0 | 0.00 | 0.00 | 0.00 | ||
| 20260831222829 | 19 | 202 | 0.0 | 0.0 | 0.00 | 0.00 | 0.00 | ||
| 20260831222428 | 19 | 202 | 0.0 | 0.0 | 0.00 | 0.00 | 0.00 | ||
| 20260831222027 | 19 | 202 | 0.0 | 0.0 | 0.00 | 0.00 | 0.00 | ||
| 20260831221626 | 19 | 202 | 0.0 | 0.0 | 0.00 | 0.00 | 0.00 | ||
| 20260831221223 | 20 | 202 | 0.0 | 0.0 | 0.00 | 0.00 | 0.00 | ||
| 20260831220822 | 20 | 202 | 0.0 | 0.0 | 0.00 | 0.00 | 0.00 | ||
| 20260831220421 | 20 | 202 | 0.0 | 0.0 | 0.00 | 0.00 | 0.00 | ||
| 20260831220020 | 20 | 202 | 0.0 | 0.0 | 0.00 | 0.00 | 0.00 | ||
| 20260831215618 | 20 | 202 | 0.0 | 1.6 | 0.00 | 0.00 | 0.00 | ||
| 20260831215209 | 21 | 202 | 1.6 | 3.2 | 0.00 | 0.00 | 0.00 | ||
| 20260831214807 | 21 | 202 | 0.0 | 3.2 | 0.00 | 0.00 | 0.00 | ||
| 20260831214406 | 21 | 202 | 3.2 | 6.4 | 0.00 | 0.00 | 0.00 | ||
| 20260831214005 | 20 | 202 | 3.2 | 4.8 | 0.00 | 0.00 | 0.00 | ||
| 20260831213602 | 20 | 202 | 0.0 | 0.0 | 0.00 | 0.00 | 0.00 | ||
| 20260831213201 | 20 | 202 | 0.0 | 3.2 | 0.00 | 0.00 | 0.00 | ||
| 20260831212759 | 20 | 202 | 3.2 | 3.2 | 0.00 | 0.00 | 0.00 | ||
| 20260831212358 | 20 | 202 | 1.6 | 4.8 | 0.00 | 0.00 | 0.00 | ||
| 20260831211956 | 20 | 202 | 1.6 | 3.2 | 0.00 | 0.00 | 0.00 | ||
| 20260831211554 | 21 | 202 | 3.2 | 3.2 | 0.00 | 0.00 | 0.00 | ||
| 20260831211146 | 21 | 272 | 1.6 | 4.8 | 0.00 | 0.00 | 0.00 | ||
| 20260831210744 | 21 | 338 | 0.0 | 1.6 | 0.00 | 0.00 | 0.00 | ||
| 20260831210342 | 20 | 338 | 0.0 | 1.6 | 0.00 | 0.00 | 0.00 | ||
| 20260831205941 | 20 | 338 | 0.0 | 0.0 | 0.00 | 0.00 | 0.00 | ||
| 20260831205539 | 21 | 338 | 0.0 | 1.6 | 0.00 | 0.00 | 0.00 | ||
| 20260831205138 | 20 | 338 | 0.0 | 0.0 | 0.00 | 0.00 | 0.00 | ||
| 20260831204736 | 20 | 338 | 0.0 | 0.0 | 0.00 | 0.00 | 0.00 | ||
| 20260831204334 | 20 | 338 | 0.0 | 0.0 | 0.00 | 0.00 | 0.00 | ||
| 20260831203933 | 21 | 338 | 0.0 | 0.0 | 0.00 | 0.00 | 0.00 | ||
| 20260831203531 | 21 | 338 | 0.0 | 0.0 | 0.00 | 0.00 | 0.00 | ||
| 20260831203123 | 21 | 338 | 0.0 | 0.0 | 0.00 | 0.00 | 0.00 | ||
| 20260831202720 | 21 | 338 | 0.0 | 1.6 | 0.00 | 0.00 | 0.00 | ||
| 20260831202319 | 21 | 338 | 0.0 | 1.6 | 0.00 | 0.00 | 0.00 | ||
| 20260831201918 | 21 | 338 | 0.0 | 0.0 | 0.00 | 0.00 | 0.00 | ||
| 20260831201517 | 21 | 338 | 0.0 | 0.0 | 0.00 | 0.00 | 0.00 | ||
| 20260831201114 | 21 | 338 | 0.0 | 0.0 | 0.00 | 0.00 | 0.00 | ||
| 20260831200713 | 21 | 338 | 0.0 | 0.0 | 0.00 | 0.00 | 0.00 | ||
| 20260831200312 | 21 | 338 | 0.0 | 0.0 | 0.00 | 0.00 | 0.00 | ||
| 20260831195911 | 22 | 338 | 0.0 | 0.0 | 0.00 | 0.00 | 0.00 | ||
| 20260831195508 | 21 | 338 | 0.0 | 0.0 | 0.00 | 0.00 | 0.00 | ||
| 20260831195100 | 21 | 338 | 0.0 | 0.0 | 0.00 | 0.00 | 0.00 | ||
| 20260831194658 | 21 | 338 | 0.0 | 1.6 | 0.00 | 0.00 | 0.00 | ||
| 20260831194257 | 21 | 338 | 0.0 | 0.0 | 0.00 | 0.00 | 0.00 | ||
| 20260831193856 | 21 | 338 | 0.0 | 1.6 | 0.00 | 0.00 | 0.00 | ||
| 20260831193453 | 21 | 338 | 0.0 | 3.2 | 0.00 | 0.00 | 0.00 | ||
| 20260831193052 | 21 | 338 | 1.6 | 3.2 | 0.00 | 0.00 | 0.00 | ||
| 20260831192249 | 21 | 338 | 3.2 | 4.8 | 0.00 | 0.00 | 0.00 | ||
| 20260831191847 | 21 | 338 | 1.6 | 4.8 | 0.00 | 0.00 | 0.00 | ||
| 20260831191445 | 21 | 338 | 1.6 | 3.2 | 0.00 | 0.00 | 0.00 | ||
| 20260831191037 | 21 | 338 | 1.6 | 3.2 | 0.00 | 0.00 | 0.00 | ||
| 20260831190635 | 21 | 333 | 1.6 | 4.8 | 0.00 | 0.00 | 0.00 | ||
| 20260831190233 | 22 | 315 | 0.0 | 3.2 | 0.00 | 0.00 | 0.00 | ||
| 20260831185431 | 22 | 292 | 0.0 | 3.2 | 0.00 | 0.00 | 0.00 | ||
| 20260831185029 | 22 | 293 | 1.6 | 6.4 | 0.00 | 0.00 | 0.00 | ||
| 20260831184626 | 22 | 292 | 1.6 | 4.8 | 0.00 | 0.00 | 0.00 | ||
| 20260831184226 | 22 | 292 | 1.6 | 4.8 | 0.00 | 0.00 | 0.00 | ||
| 20260831183825 | 22 | 295 | 4.8 | 11.3 | 0.00 | 0.00 | 0.00 | ||
| 20260831183423 | 22 | 292 | 3.2 | 8.0 | 0.00 | 0.00 | 0.00 | ||
| 20260831183015 | 22 | 292 | 3.2 | 9.7 | 0.00 | 0.00 | 0.00 | ||
| 20260831182612 | 22 | 288 | 4.8 | 9.7 | 0.00 | 0.00 | 0.00 | ||
| 20260831182211 | 22 | 292 | 1.6 | 4.8 | 0.00 | 0.00 | 0.00 | ||
| 20260831181810 | 22 | 292 | 3.2 | 4.8 | 0.00 | 0.00 | 0.00 | ||
| 20260831181408 | 22 | 292 | 3.2 | 6.4 | 0.00 | 0.00 | 0.00 | ||
| 20260831181006 | 22 | 292 | 3.2 | 4.8 | 0.00 | 0.00 | 0.00 | ||
| 20260831180604 | 23 | 270 | 3.2 | 3.2 | 0.00 | 0.00 | 0.00 | ||
| 20260831180203 | 23 | 270 | 3.2 | 3.2 | 0.00 | 0.00 | 0.00 |